Find Beidou DW 48

NORAD ID: 44542 Int'l Des: 2019-061 Owner: CNSA Country: CN Constellation: BeiDou operational
MEOCIRCULAR

当前视图

正在加载3D地球...

About Beidou DW 48

Beidou DW 48 (NORAD 44542) is a BeiDou constellation satellite launched Sep 22, 2019 by CNSA of CN. It operates in MEO, CIRCULAR orbit with a mass of 1014.00 kg.

关于 Beidou DW 48

正在加载描述...

即将过境

Passes for default location (London). Set your location on the main map for personalized predictions.

高度历史

Loading altitude history...

两行轨道根数

1 44542U 19061A 26167.16854632 .00000072 00000-0 00000+0 0 9991
2 44542 54.3962 182.7624 0008295 358.7070 1.3305 1.86229155 45778
Epoch: Jun 16, 2026 • Age: 7 hours

当前状态

高度 21553.0 km
速度 3.78 km/s
星下点 -10.51°S, 58.61°W
发射日期 Sep 22, 2019
运行时间 6.7 years
类型 navigation

发射组

Unknown Vehicle • BeiDou Launch 39 • 2 satellites

技术详情

分类 Payload
质量 1014.00 kg
干质量 850.00 kg
总质量 1014.00 kg
长度 2.20 m
直径 1.70 m
跨度 10.00 m
形状 Box + 2 Pan
制造商 CAST
平台类型 BD-3M/SAR
阶段状态 In Orbit
所有者/国家 CNSA/CN

Most Searched